This demonstration page uses our WeatherBlox Daily Observations layout. Learn more.

Left ArrowRight Arrow

Hourly Observations for March 19, 2016

Temp ( °F °C ) Dew Point ( °F °C ) Humidity (%) Winds ( mph kmh ) Pressure ( in mb ) Visibility ( mi km ) Precip ( " mm )
12:54 am 00:54 Clear 31 -0.6 18 -7.8 59 59 NW 6 9 30.27 1025 10 16 0.00 0.00
1:54 am 01:54 Clear 30 -1.1 18 -7.8 61 61 NW 3 6 30.27 1025 10 16 0.00 0.00
2:54 am 02:54 Partly Cloudy 30 -1.1 18 -7.8 61 61 WNW 7 11 30.27 1025 10 16 0.00 0.00
3:54 am 03:54 Cloudy 29 -1.7 18 -7.8 63 63 NW 8 13 30.26 1025 10 16 0.00 0.00
4:54 am 04:54 Cloudy 31 -0.6 19 -7.2 61 61 WNW 9 15 30.25 1025 10 16 0.00 0.00
5:54 am 05:54 Cloudy 32 0 19 -7.2 59 59 NW 17 28 30.25 1024 10 16 0.00 0.00
6:54 am 06:54 Partly Cloudy 30 -1.1 19 -7.2 64 64 NW 15 24 30.27 1025 10 16 0.00 0.00
7:54 am 07:54 Sunny 30 -1.1 20 -6.7 66 66 NW 12 19 30.27 1025 10 16 0.00 0.00
8:54 am 08:54 Partly Cloudy 31 -0.6 21 -6.1 67 67 NW 18 30 30.28 1025 10 16 0.00 0.00
9:05 am 09:05 Mostly Cloudy 32 0 21 -6 64 64 WNW 20 31 30.36 1028 10 16 0.00 0.00
10:54 am 10:54 Cloudy 34 1.1 21 -6.1 59 59 NNW 20 31 30.32 1027 10 16 0.00 0.03
11:54 am 11:54 Cloudy 36 2.2 22 -5.6 57 57 N 18 30 30.32 1027 10 16 0.00 0.00
12:54 pm 12:54 Cloudy 37 2.8 21 -6.1 52 52 NW 14 22 30.32 1027 10 16 0.00 0.00
1:54 pm 13:54 Cloudy 38 3.3 20 -6.7 48 48 NNW 15 24 30.31 1026 10 16 0.00 0.00
2:54 pm 14:54 Cloudy 40 4.4 23 -5 51 51 NNW 22 35 30.29 1026 8 13 0.00 0.00
3:54 pm 15:54 Mostly Cloudy 40 4.4 22 -5.6 49 49 NNW 20 31 30.29 1026 10 16 0.00 0.03
4:32 pm 16:32 Cloudy with Light Snow 36 2 30 -1 81 81 N 16 26 30.33 1027 2 3 0.00 0.00
5:54 pm 17:54 Cloudy with Light Snow 38 3.3 28 -2.2 68 68 NNW 16 26 30.32 1027 9 14 0.00 0.03
6:54 pm 18:54 Cloudy 38 3.3 23 -5 55 55 N 21 33 30.33 1027 10 16 0.00 0.03
7:54 pm 19:54 Cloudy 37 2.8 24 -4.4 59 59 NNW 14 22 30.35 1028 10 16 0.00 0.00
9:54 pm 21:54 Clear 34 1.1 24 -4.4 67 67 NNW 13 20 30.37 1029 10 16 0.00 0.00
11:54 pm 23:54 Clear 30 -1 25 -4 80 80 NNW 8 13 30.42 1030 10 16 0.00 0.00

Powered by AerisWeather